Location: Potomac Astrometric Observatory
(39.0475°N, 77.2064°W)
Time: 06:29:13
(UTC-04:00)

Envisat - Pass Details

Date: 21 March 2019
Orbit: 764 x 766 km, 98.2° (Epoch: 24 April)

Event Time Altitude Azimuth Distance (km) Brightness Sun altitude
Rises 20:13:15 0° 181° (S) 3,217 6.1 -10.8°
Reaches altitude 10° 20:15:38 10° 187° (S) 2,296 5.5 -11.3°
Maximum altitude 20:20:29 47° 261° (W) 1,013 4.1 -12.2°
Drops below altitude 10° 20:25:23 10° 335° (NNW) 2,310 6.0 -13.1°
Sets 20:27:48 0° 341° (NNW) 3,241 6.7 -13.6°
